Regional Weather Roundup
Issued by NWS

Home | Current Version | Previous Version | Graphics & Text | Print | Product List | Glossary On
Versions: 1 2 3 4 5 6 7 8 9 10 11 12 13 14 15 16 17 18 19 20 21 22 23 24 25 26 27 28 29 30 31 32 33 34 35 36 37 38 39 40 41 42 43 44 45 46 47 48 49 50
000
ASUS45 KPSR 271700
RWRAZ

ARIZONA REGIONAL HOURLY WEATHER ROUNDUP
NATIONAL WEATHER SERVICE PHOENIX AZ
1000 AM MST MON APR 27 2015

NOTE: FAIR INDICATES FEW OR NO CLOUDS BELOW 12,000 FEET WITH NO
SIGNIFICANT WEATHER AND/OR OBSTRUCTIONS TO VISIBILITY.

AZZ001>003-036-271800-
NORTHWEST ARIZONA

CITY           SKY/WX    TMP DP  RH WIND       PRES   REMARKS
KINGMAN        SUNNY     62  26  25 N9        30.08S
$$

AZZ004>008-015-016-018-271800-
NORTH CENTRAL ARIZONA

CITY           SKY/WX    TMP DP  RH WIND       PRES   REMARKS
GRAND CANYON   SUNNY     52  32  46 NE10      30.14R
WILLIAMS       SUNNY     52  34  50 NE16G24   30.18S
PRESCOTT       SUNNY     57  30  35 N5        30.07S
FLAGSTAFF      NOT AVBL
PAYSON         SUNNY     57  36  44 N9        30.05S
$$

AZZ009>014-017-271800-
NORTHEAST ARIZONA

CITY           SKY/WX    TMP DP  RH WIND       PRES   REMARKS
WINSLOW        NOT AVBL
SAINT JOHNS    PTSUNNY   53  39  59 VRB5      30.07R
WINDOW ROCK    MOSUNNY   51  36  56 NE14      30.11R
SHOW LOW       CLOUDY    43  34  70 NE7       30.11R
$$

AZZ023-271800-
GREATER PHOENIX AREA

CITY           SKY/WX    TMP DP  RH WIND       PRES   REMARKS
PHOENIX        MOSUNNY   70  45  40 CALM      29.91F
GLENDALE       SUNNY     72  37  28 E3        29.93F
LUKE AFB       SUNNY     71  41  33 NW2       29.91R
DEER VALLEY    SUNNY     70  39  32 VRB3      29.92S
SCOTTSDALE     SUNNY     68  41  37 CALM      29.94S
MESA-FALCON    SUNNY     66  39  37 N6        29.92F
MESA-GATEWAY   MOSUNNY   68  45  42 CALM      29.95S
CHANDLER       SUNNY     70  43  37 NE8       29.93S
$$

AZZ027-028-271800-
SOUTHWEST MARICOPA COUNTY AND PINAL COUNTY

CITY           SKY/WX    TMP DP  RH WIND       PRES   REMARKS
CASA GRANDE    SUNNY     70  43  37 CALM      29.92S
$$

AZZ503-504-507>509-271800-
SOUTHEAST ARIZONA

CITY           SKY/WX    TMP DP  RH WIND       PRES   REMARKS
TUCSON         SUNNY     69  37  30 N8        29.96R
DAVIS-MONTHAN  SUNNY     65  38  36 NW3       29.94R
RYAN FIELD       N/A     68  39  34 NW7       29.95S
NOGALES        SUNNY     66  34  30 W8        29.95S
SIERRA VISTA   SUNNY     61  33  34 N8        29.99R
SAFFORD        SUNNY     62  43  49 W6        29.96S
$$

AZZ020-021-025-026-031-271800-
SOUTHWEST ARIZONA

CITY           SKY/WX    TMP DP  RH WIND       PRES   REMARKS
YUMA           NOT AVBL
$$

CAZ031-033-041-043-047-048-061-271800-
SOUTHERN CALIFORNIA

CITY           SKY/WX    TMP DP  RH WIND       PRES   REMARKS
DOWNTOWN L.A.  SUNNY     76  47  35 VRB3      29.95R
L.A. AIRPORT   MOSUNNY   74  47  38 VRB5      29.96S
SAN DIEGO      MOSUNNY   71  50  47 CALM      29.96S
BURBANK        SUNNY     77  35  21 SE6       29.96R
ONTARIO        MOSUNNY   77  20  12 NE18G36   29.96S
RIVERSIDE      SUNNY     76  19  11 N12G23    29.99S
PALM SPRINGS   SUNNY     81  16   9 N15       30.01R
EL CENTRO NAS  MOSUNNY   80  22  11 N23       29.97S
IMPERIAL       SUNNY     78  23  13 NW14G22   29.95R
BLYTHE         SUNNY     77  25  14 N21       29.95S
$$

NVZ020-UTZ003-271800-
SOUTHERN NEVADA-UTAH

CITY           SKY/WX    TMP DP  RH WIND       PRES   REMARKS
LAS VEGAS      NOT AVBL
SALT LAKE CITY MOSUNNY   52  39  61 NW13G20   30.25S
$$

NMZ009-TXZ055-271800-
NEW MEXICO-WEST TEXAS

CITY           SKY/WX    TMP DP  RH WIND       PRES   REMARKS
ALBUQUERQUE    PTSUNNY   53  39  59 VRB6      30.05S
EL PASO        PTSUNNY   60  39  45 NW8       29.94S
$$


........................KEY........................
SKY/WX - SKY CONDITION/WEATHER
TMP    - TEMPERATURE IN FAHRENHEIT
DP     - DEW POINT IN FAHRENHEIT
RH     - RELATIVE HUMIDITY IN PERCENT
WIND   - DIRECTION AND SPEED IN MILES PER HOUR (MPH)
VRB    - VARIABLE WIND DIRECTION
PRES   - MEAN SEA LEVEL PRESSURE IN INCHES OF MERCURY
         F - FALLING PRESSURE   R - RISING PRESSURE
         S - STEADY PRESSURE
VSB    - VISIBILITY IN MILES
HX     - HEAT INDEX IN FAHRENHEIT
WCI    - WIND CHILL INDEX IN FAHRENHEIT
TC     - TEMPERATURE IN CELSIUS WHICH IS ALSO KNOWN AS
         TEMPERATURE IN CENTIGRADE
AFB    - AIR FORCE BASE
         LUKE AFB IS LUKE AIR FORCE BASE
         DAVIS-MONTHAN IS DAVIS-MONTHAN AIR FORCE BASE
NAS    - NAVAL AIR STATION
         EL CENTRO NAS IS EL CENTRO NAVAL AIR STATION
N/A    - NOT AVAILABLE



USA.gov is the U.S. government's official web portal to all federal, state and local government web resources and services.